Torna al catalogo

KUIPER-00114

AttivoComunicazioniLEO
NORAD 65151·PAYLOAD·🇺🇸 United States

Lanciato Aug 11, 2025 da Cape Canaveral Space Force Station

Loading…

Prossimi Passaggi (prossime 24 ore)

TLE

AggiornatoSource: CelesTrak SupGP

Epoca: Sep 14, 2026, 22:20 UTC

1 65151C 25171V   26257.93118056  .00006515  00000+0  85274-3 0  2571
2 65151  51.8991  58.7646 0000632 120.1771 168.0335 14.79930905    13

Traccia KUIPER-00114 in tempo reale con AllMySat

Download on the App Store